owner,sensor,date,latitude,longitude,vertical_datum,wind_speed,wind_to_direction,wind_speed_of_gust,qcFlag 
COMPS,ioos:station:USF.COMPS:FHP:1,2019-06-01T00:54:00,28.1530,-82.8010,10.0,3.51,289.31,4.5,'11111222,11111222,11111222' 
COMPS,ioos:station:USF.COMPS:FHP:1,2019-06-01T01:54:00,28.1530,-82.8010,10.0,3.75,291.64,4.9,'11111222,11111222,11111222' 
COMPS,ioos:station:USF.COMPS:FHP:1,2019-06-01T02:54:00,28.1530,-82.8010,10.0,2.97,297.6,3.72,'11111222,11111222,11111222' 
COMPS,ioos:station:USF.COMPS:FHP:1,2019-06-01T03:54:00,28.1530,-82.8010,10.0,3.94,302.87,5.29,'11111222,11111222,11111222' 
COMPS,ioos:station:USF.COMPS:FHP:1,2019-06-01T04:54:00,28.1530,-82.8010,10.0,3.47,303.84,4.5,'11111222,11111222,11111222' 
COMPS,ioos:station:USF.COMPS:FHP:1,2019-06-01T05:54:00,28.1530,-82.8010,10.0,3.37,301.12,4.21,'11111222,11111222,11111222' 
COMPS,ioos:station:USF.COMPS:FHP:1,2019-06-01T06:54:00,28.1530,-82.8010,10.0,2.71,295.48,3.52,'11111222,11111222,11111222' 
COMPS,ioos:station:USF.COMPS:FHP:1,2019-06-01T07:54:00,28.1530,-82.8010,10.0,2.74,262.62,3.62,'11111222,11111222,11111222' 
COMPS,ioos:station:USF.COMPS:FHP:1,2019-06-01T08:54:00,28.1530,-82.8010,10.0,3.01,244.92,3.82,'11111222,11111222,11111222' 
COMPS,ioos:station:USF.COMPS:FHP:1,2019-06-01T09:54:00,28.1530,-82.8010,10.0,2.77,258.19,3.33,'11111222,11111222,11111222' 
COMPS,ioos:station:USF.COMPS:FHP:1,2019-06-01T10:54:00,28.1530,-82.8010,10.0,2.39,275.86,3.13,'11111222,11111222,11111222' 
COMPS,ioos:station:USF.COMPS:FHP:1,2019-06-01T11:54:00,28.1530,-82.8010,10.0,3.34,276.68,4.41,'11111222,11111222,11111222' 
COMPS,ioos:station:USF.COMPS:FHP:1,2019-06-01T12:54:00,28.1530,-82.8010,10.0,3.17,299.76,4.31,'11111222,11111222,11111222' 
COMPS,ioos:station:USF.COMPS:FHP:1,2019-06-01T13:54:00,28.1530,-82.8010,10.0,2.69,307.77,3.72,'11111222,11111222,11111222' 
COMPS,ioos:station:USF.COMPS:FHP:1,2019-06-01T14:54:00,28.1530,-82.8010,10.0,2.34,318.92,3.33,'11111222,11111222,11111222' 
COMPS,ioos:station:USF.COMPS:FHP:1,2019-06-01T15:54:00,28.1530,-82.8010,10.0,2.46,277.48,3.33,'11111222,11111222,11111222' 
COMPS,ioos:station:USF.COMPS:FHP:1,2019-06-01T16:54:00,28.1530,-82.8010,10.0,3.53,285.28,4.99,'11111222,11111222,11111222' 
COMPS,ioos:station:USF.COMPS:FHP:1,2019-06-01T17:54:00,28.1530,-82.8010,10.0,3.62,293.09,4.6,'11111222,11111222,11111222' 
COMPS,ioos:station:USF.COMPS:FHP:1,2019-06-01T18:54:00,28.1530,-82.8010,10.0,3.93,274.32,4.7,'11111222,11111222,11111222' 
COMPS,ioos:station:USF.COMPS:FHP:1,2019-06-01T19:54:00,28.1530,-82.8010,10.0,4.6,264.8,5.87,'11111222,11111222,11111222' 
COMPS,ioos:station:USF.COMPS:FHP:1,2019-06-01T20:54:00,28.1530,-82.8010,10.0,4.39,270.09,5.39,'11111222,11111222,11111222' 
COMPS,ioos:station:USF.COMPS:FHP:1,2019-06-01T21:54:00,28.1530,-82.8010,10.0,4.98,267.37,6.56,'11111222,11111222,11111222' 
COMPS,ioos:station:USF.COMPS:FHP:1,2019-06-01T22:54:00,28.1530,-82.8010,10.0,4.41,281.6,5.39,'11111222,11111222,11111222' 
COMPS,ioos:station:USF.COMPS:FHP:1,2019-06-01T23:54:00,28.1530,-82.8010,10.0,4.23,286.86,6.07,'11111222,11111222,11111222' 
COMPS,ioos:station:USF.COMPS:FHP:1,2019-06-02T00:54:00,28.1530,-82.8010,10.0,4.33,261.58,5.97,'11111222,11111222,11111222' 
COMPS,ioos:station:USF.COMPS:FHP:1,2019-06-02T01:54:00,28.1530,-82.8010,10.0,2.74,267.7,3.91,'11111222,11111222,11111222' 
COMPS,ioos:station:USF.COMPS:FHP:1,2019-06-02T02:54:00,28.1530,-82.8010,10.0,2.5,301.22,3.23,'11111222,11111222,11111222' 
COMPS,ioos:station:USF.COMPS:FHP:1,2019-06-02T03:54:00,28.1530,-82.8010,10.0,3.08,268.2,4.01,'11111222,11111222,11111222' 
COMPS,ioos:station:USF.COMPS:FHP:1,2019-06-02T04:54:00,28.1530,-82.8010,10.0,3.11,261.26,3.62,'11111222,11111222,11111222' 
COMPS,ioos:station:USF.COMPS:FHP:1,2019-06-02T05:54:00,28.1530,-82.8010,10.0,2.36,250.33,3.52,'11111222,11111222,11111222' 
COMPS,ioos:station:USF.COMPS:FHP:1,2019-06-02T06:54:00,28.1530,-82.8010,10.0,2.24,260.04,3.23,'11111222,11111222,11111222' 
COMPS,ioos:station:USF.COMPS:FHP:1,2019-06-02T07:54:00,28.1530,-82.8010,10.0,2.81,234.13,3.42,'11111222,11111222,11111222' 
COMPS,ioos:station:USF.COMPS:FHP:1,2019-06-02T08:54:00,28.1530,-82.8010,10.0,3.24,267.41,4.21,'11111222,11111222,11111222' 
COMPS,ioos:station:USF.COMPS:FHP:1,2019-06-02T09:54:00,28.1530,-82.8010,10.0,2.77,281.05,4.21,'11111222,11111222,11111222' 
COMPS,ioos:station:USF.COMPS:FHP:1,2019-06-02T10:54:00,28.1530,-82.8010,10.0,3.11,275.76,3.91,'11111222,11111222,11111222' 
COMPS,ioos:station:USF.COMPS:FHP:1,2019-06-02T11:54:00,28.1530,-82.8010,10.0,3.23,277.25,3.82,'11111222,11111222,11111222' 
COMPS,ioos:station:USF.COMPS:FHP:1,2019-06-02T12:54:00,28.1530,-82.8010,10.0,3.53,277.38,4.21,'11111222,11111222,11111222' 
COMPS,ioos:station:USF.COMPS:FHP:1,2019-06-02T13:54:00,28.1530,-82.8010,10.0,3.28,269.96,4.11,'11111222,11111222,11111222' 
COMPS,ioos:station:USF.COMPS:FHP:1,2019-06-02T14:54:00,28.1530,-82.8010,10.0,2.88,267.68,4.01,'11111222,11111222,11111222' 
COMPS,ioos:station:USF.COMPS:FHP:1,2019-06-02T15:54:00,28.1530,-82.8010,10.0,3.79,262.77,4.8,'11111222,11111222,11111222' 
COMPS,ioos:station:USF.COMPS:FHP:1,2019-06-02T16:54:00,28.1530,-82.8010,10.0,4.08,274.74,5.29,'11111222,11111222,11111222' 
COMPS,ioos:station:USF.COMPS:FHP:1,2019-06-02T17:54:00,28.1530,-82.8010,10.0,3.98,274.6,5.19,'11111222,11111222,11111222' 
COMPS,ioos:station:USF.COMPS:FHP:1,2019-06-02T18:54:00,28.1530,-82.8010,10.0,4.08,271.18,5.19,'11111222,11111222,11111222' 
COMPS,ioos:station:USF.COMPS:FHP:1,2019-06-02T19:54:00,28.1530,-82.8010,10.0,3.96,280.97,5.19,'11111222,11111222,11111222' 
COMPS,ioos:station:USF.COMPS:FHP:1,2019-06-02T20:54:00,28.1530,-82.8010,10.0,4.13,280.19,5.48,'11111222,11111222,11111222' 
COMPS,ioos:station:USF.COMPS:FHP:1,2019-06-02T21:54:00,28.1530,-82.8010,10.0,3.95,275.41,5.48,'11111222,11111222,11111222' 
COMPS,ioos:station:USF.COMPS:FHP:1,2019-06-02T22:54:00,28.1530,-82.8010,10.0,3.2,286.05,4.31,'11111222,11111222,11111222' 
COMPS,ioos:station:USF.COMPS:FHP:1,2019-06-02T23:54:00,28.1530,-82.8010,10.0,3.07,275.19,3.91,'11111222,11111222,11111222' 
COMPS,ioos:station:USF.COMPS:FHP:1,2019-06-03T00:54:00,28.1530,-82.8010,10.0,3.42,282.56,4.6,'11111222,11111222,11111222' 
COMPS,ioos:station:USF.COMPS:FHP:1,2019-06-03T01:54:00,28.1530,-82.8010,10.0,3.86,270.88,4.8,'11111222,11111222,11111222' 
COMPS,ioos:station:USF.COMPS:FHP:1,2019-06-03T02:54:00,28.1530,-82.8010,10.0,3.45,278.99,4.41,'11111222,11111222,11111222' 
COMPS,ioos:station:USF.COMPS:FHP:1,2019-06-03T03:54:00,28.1530,-82.8010,10.0,3.7,270.37,4.7,'11111222,11111222,11111222' 
COMPS,ioos:station:USF.COMPS:FHP:1,2019-06-03T04:54:00,28.1530,-82.8010,10.0,3.56,264.43,4.5,'11111222,11111222,11111222' 
COMPS,ioos:station:USF.COMPS:FHP:1,2019-06-03T05:54:00,28.1530,-82.8010,10.0,3.97,277.21,4.9,'11111222,11111222,11111222' 
COMPS,ioos:station:USF.COMPS:FHP:1,2019-06-03T06:54:00,28.1530,-82.8010,10.0,3.64,275.79,4.9,'11111222,11111222,11111222' 
COMPS,ioos:station:USF.COMPS:FHP:1,2019-06-03T07:54:00,28.1530,-82.8010,10.0,2.58,287.32,3.62,'11111222,11111222,11111222' 
COMPS,ioos:station:USF.COMPS:FHP:1,2019-06-03T08:54:00,28.1530,-82.8010,10.0,3.52,271.9,4.41,'11111222,11111222,11111222' 
COMPS,ioos:station:USF.COMPS:FHP:1,2019-06-03T09:54:00,28.1530,-82.8010,10.0,3.35,294.81,4.31,'11111222,11111222,11111222' 
COMPS,ioos:station:USF.COMPS:FHP:1,2019-06-03T10:54:00,28.1530,-82.8010,10.0,2.94,293.7,4.31,'11111222,11111222,11111222' 
COMPS,ioos:station:USF.COMPS:FHP:1,2019-06-03T11:54:00,28.1530,-82.8010,10.0,4.06,297.84,4.99,'11111222,11111222,11111222' 
COMPS,ioos:station:USF.COMPS:FHP:1,2019-06-03T12:54:00,28.1530,-82.8010,10.0,4.28,306.94,5.87,'11111222,11111222,11111222' 
COMPS,ioos:station:USF.COMPS:FHP:1,2019-06-03T13:54:00,28.1530,-82.8010,10.0,3.1,303.21,3.91,'11111222,11111222,11111222' 
COMPS,ioos:station:USF.COMPS:FHP:1,2019-06-03T14:54:00,28.1530,-82.8010,10.0,3.56,301.33,4.9,'11111222,11111222,11111222' 
COMPS,ioos:station:USF.COMPS:FHP:1,2019-06-03T15:54:00,28.1530,-82.8010,10.0,3.04,279.26,4.11,'11111222,11111222,11111222' 
COMPS,ioos:station:USF.COMPS:FHP:1,2019-06-03T16:54:00,28.1530,-82.8010,10.0,3.99,287.45,4.99,'11111222,11111222,11111222' 
COMPS,ioos:station:USF.COMPS:FHP:1,2019-06-03T17:54:00,28.1530,-82.8010,10.0,3.46,276.62,4.5,'11111222,11111222,11111222' 
COMPS,ioos:station:USF.COMPS:FHP:1,2019-06-03T18:54:00,28.1530,-82.8010,10.0,3.79,277.58,5.09,'11111222,11111222,11111222' 
COMPS,ioos:station:USF.COMPS:FHP:1,2019-06-03T19:54:00,28.1530,-82.8010,10.0,3.59,284.55,4.7,'11111222,11111222,11111222' 
COMPS,ioos:station:USF.COMPS:FHP:1,2019-06-03T20:54:00,28.1530,-82.8010,10.0,3.34,284.56,4.21,'11111222,11111222,11111222' 
COMPS,ioos:station:USF.COMPS:FHP:1,2019-06-03T21:54:00,28.1530,-82.8010,10.0,3.83,275.17,4.8,'11111222,11111222,11111222' 
COMPS,ioos:station:USF.COMPS:FHP:1,2019-06-03T22:54:00,28.1530,-82.8010,10.0,3.46,290.55,4.31,'11111222,11111222,11111222' 
COMPS,ioos:station:USF.COMPS:FHP:1,2019-06-03T23:54:00,28.1530,-82.8010,10.0,3.39,296.46,4.31,'11111222,11111222,11111222' 
COMPS,ioos:station:USF.COMPS:FHP:1,2019-06-04T00:54:00,28.1530,-82.8010,10.0,3.43,270.73,4.31,'11111222,11111222,11111222' 
COMPS,ioos:station:USF.COMPS:FHP:1,2019-06-04T01:54:00,28.1530,-82.8010,10.0,3.64,267.13,4.5,'11111222,11111222,11111222' 
COMPS,ioos:station:USF.COMPS:FHP:1,2019-06-04T02:54:00,28.1530,-82.8010,10.0,2.52,282.45,3.23,'11111222,11111222,11111222' 
COMPS,ioos:station:USF.COMPS:FHP:1,2019-06-04T03:54:00,28.1530,-82.8010,10.0,2.52,281.44,3.52,'11111222,11111222,11111222' 
COMPS,ioos:station:USF.COMPS:FHP:1,2019-06-04T04:54:00,28.1530,-82.8010,10.0,1.85,285.37,2.45,'11111222,11111222,11111222' 
COMPS,ioos:station:USF.COMPS:FHP:1,2019-06-04T05:54:00,28.1530,-82.8010,10.0,0.92,286.04,1.46,'11111222,11111222,11111222' 
COMPS,ioos:station:USF.COMPS:FHP:1,2019-06-04T06:54:00,28.1530,-82.8010,10.0,2.24,294.6,3.13,'11111222,11111222,11111222' 
COMPS,ioos:station:USF.COMPS:FHP:1,2019-06-04T07:54:00,28.1530,-82.8010,10.0,2.56,316.38,3.42,'11111222,11111222,11111222' 
COMPS,ioos:station:USF.COMPS:FHP:1,2019-06-04T08:54:00,28.1530,-82.8010,10.0,2.91,334.49,3.72,'11111222,11111222,11111222' 
COMPS,ioos:station:USF.COMPS:FHP:1,2019-06-04T09:54:00,28.1530,-82.8010,10.0,2.62,331.38,3.33,'11111222,11111222,11111222' 
COMPS,ioos:station:USF.COMPS:FHP:1,2019-06-04T10:54:00,28.1530,-82.8010,10.0,1.73,326.05,2.15,'11111222,11111222,11111222' 
COMPS,ioos:station:USF.COMPS:FHP:1,2019-06-04T11:54:00,28.1530,-82.8010,10.0,0.61,346.96,1.17,'11111222,11111222,11111222' 
COMPS,ioos:station:USF.COMPS:FHP:1,2019-06-04T12:54:00,28.1530,-82.8010,10.0,1.08,335.14,1.95,'11111222,11111222,11111222' 
COMPS,ioos:station:USF.COMPS:FHP:1,2019-06-04T13:54:00,28.1530,-82.8010,10.0,1.79,345.86,2.25,'11111222,11111222,11111222' 
COMPS,ioos:station:USF.COMPS:FHP:1,2019-06-04T14:54:00,28.1530,-82.8010,10.0,2.21,342.03,3.23,'11111222,11111222,11111222' 
COMPS,ioos:station:USF.COMPS:FHP:1,2019-06-04T15:54:00,28.1530,-82.8010,10.0,2.55,330.09,3.23,'11111222,11111222,11111222' 
COMPS,ioos:station:USF.COMPS:FHP:1,2019-06-04T16:54:00,28.1530,-82.8010,10.0,3.31,289.75,4.01,'11111222,11111222,11111222' 
COMPS,ioos:station:USF.COMPS:FHP:1,2019-06-04T17:54:00,28.1530,-82.8010,10.0,4.54,292.5,5.78,'11111222,11111222,11111222' 
COMPS,ioos:station:USF.COMPS:FHP:1,2019-06-04T18:54:00,28.1530,-82.8010,10.0,5.28,291.23,6.56,'11111222,11111222,11111222' 
COMPS,ioos:station:USF.COMPS:FHP:1,2019-06-04T19:54:00,28.1530,-82.8010,10.0,4.44,298.52,5.39,'11111222,11111222,11111222' 
COMPS,ioos:station:USF.COMPS:FHP:1,2019-06-04T20:54:00,28.1530,-82.8010,10.0,3.95,302.64,5.39,'11111222,11111222,11111222' 
COMPS,ioos:station:USF.COMPS:FHP:1,2019-06-04T21:54:00,28.1530,-82.8010,10.0,3.25,340.53,4.31,'11111222,11111222,11111222' 
COMPS,ioos:station:USF.COMPS:FHP:1,2019-06-04T22:54:00,28.1530,-82.8010,10.0,1.52,304.11,2.54,'11111222,11111222,11111222' 
COMPS,ioos:station:USF.COMPS:FHP:1,2019-06-04T23:54:00,28.1530,-82.8010,10.0,1.11,286.35,1.76,'11111222,11111222,11111222' 
COMPS,ioos:station:USF.COMPS:FHP:1,2019-06-05T00:54:00,28.1530,-82.8010,10.0,0.38,261.56,0.88,'11111222,11111222,11111222' 
COMPS,ioos:station:USF.COMPS:FHP:1,2019-06-05T01:54:00,28.1530,-82.8010,10.0,3.66,124.85,4.6,'11111222,11111222,11111222' 
COMPS,ioos:station:USF.COMPS:FHP:1,2019-06-05T02:54:00,28.1530,-82.8010,10.0,2.93,121.73,3.62,'11111222,11111222,11111222' 
COMPS,ioos:station:USF.COMPS:FHP:1,2019-06-05T03:54:00,28.1530,-82.8010,10.0,2.05,125.98,2.74,'11111222,11111222,11111222' 
COMPS,ioos:station:USF.COMPS:FHP:1,2019-06-05T04:54:00,28.1530,-82.8010,10.0,1.88,101.0,2.74,'11111222,11111222,11111222' 
COMPS,ioos:station:USF.COMPS:FHP:1,2019-06-05T05:54:00,28.1530,-82.8010,10.0,3.14,131.12,4.01,'11111222,11111222,11111222' 
COMPS,ioos:station:USF.COMPS:FHP:1,2019-06-05T06:54:00,28.1530,-82.8010,10.0,2.19,133.23,2.74,'11111222,11111222,11111222' 
COMPS,ioos:station:USF.COMPS:FHP:1,2019-06-05T07:54:00,28.1530,-82.8010,10.0,2.58,134.4,3.42,'11111222,11111222,11111222' 
COMPS,ioos:station:USF.COMPS:FHP:1,2019-06-05T08:54:00,28.1530,-82.8010,10.0,2.54,93.49,3.03,'11111222,11111222,11111222' 
COMPS,ioos:station:USF.COMPS:FHP:1,2019-06-05T09:54:00,28.1530,-82.8010,10.0,2.42,109.13,3.23,'11111222,11111222,11111222' 
COMPS,ioos:station:USF.COMPS:FHP:1,2019-06-05T10:54:00,28.1530,-82.8010,10.0,2.86,114.08,3.33,'11111222,11111222,11111222' 
COMPS,ioos:station:USF.COMPS:FHP:1,2019-06-05T11:54:00,28.1530,-82.8010,10.0,3.17,130.53,3.82,'11111222,11111222,11111222' 
COMPS,ioos:station:USF.COMPS:FHP:1,2019-06-05T12:54:00,28.1530,-82.8010,10.0,3.62,158.0,4.6,'11111222,11111222,11111222' 
COMPS,ioos:station:USF.COMPS:FHP:1,2019-06-05T13:54:00,28.1530,-82.8010,10.0,2.09,175.03,2.84,'11111222,11111222,11111222' 
COMPS,ioos:station:USF.COMPS:FHP:1,2019-06-05T14:54:00,28.1530,-82.8010,10.0,1.64,191.21,2.45,'11111222,11111222,11111222' 
COMPS,ioos:station:USF.COMPS:FHP:1,2019-06-05T15:54:00,28.1530,-82.8010,10.0,3.54,257.77,4.41,'11111222,11111222,11111222' 
COMPS,ioos:station:USF.COMPS:FHP:1,2019-06-05T16:54:00,28.1530,-82.8010,10.0,3.91,238.84,4.8,'11111222,11111222,11111222' 
COMPS,ioos:station:USF.COMPS:FHP:1,2019-06-05T17:54:00,28.1530,-82.8010,10.0,4.17,245.32,4.8,'11111222,11111222,11111222' 
COMPS,ioos:station:USF.COMPS:FHP:1,2019-06-05T18:54:00,28.1530,-82.8010,10.0,4.69,255.18,5.58,'11111222,11111222,11111222' 
COMPS,ioos:station:USF.COMPS:FHP:1,2019-06-05T19:54:00,28.1530,-82.8010,10.0,4.95,276.21,6.27,'11111222,11111222,11111222' 
COMPS,ioos:station:USF.COMPS:FHP:1,2019-06-05T20:54:00,28.1530,-82.8010,10.0,4.25,274.46,5.29,'11111222,11111222,11111222' 
COMPS,ioos:station:USF.COMPS:FHP:1,2019-06-05T21:54:00,28.1530,-82.8010,10.0,2.74,298.95,4.11,'11111222,11111222,11111222' 
COMPS,ioos:station:USF.COMPS:FHP:1,2019-06-05T22:54:00,28.1530,-82.8010,10.0,1.03,28.4,1.86,'11111222,11111222,11111222' 
COMPS,ioos:station:USF.COMPS:FHP:1,2019-06-05T23:54:00,28.1530,-82.8010,10.0,2.4,325.93,3.33,'11111222,11111222,11111222' 
COMPS,ioos:station:USF.COMPS:FHP:1,2019-06-06T00:54:00,28.1530,-82.8010,10.0,2.75,317.43,3.33,'11111222,11111222,11111222' 
COMPS,ioos:station:USF.COMPS:FHP:1,2019-06-06T01:54:00,28.1530,-82.8010,10.0,1.68,290.89,2.45,'11111222,11111222,11111222' 
COMPS,ioos:station:USF.COMPS:FHP:1,2019-06-06T02:54:00,28.1530,-82.8010,10.0,0.32,34.51,1.17,'11111222,11111222,11111222' 
COMPS,ioos:station:USF.COMPS:FHP:1,2019-06-06T03:54:00,28.1530,-82.8010,10.0,4.38,120.55,5.78,'11111222,11111222,11111222' 
COMPS,ioos:station:USF.COMPS:FHP:1,2019-06-06T04:54:00,28.1530,-82.8010,10.0,2.7,136.3,3.42,'11111222,11111222,11111222' 
COMPS,ioos:station:USF.COMPS:FHP:1,2019-06-06T05:54:00,28.1530,-82.8010,10.0,2.36,136.85,3.03,'11111222,11111222,11111222' 
COMPS,ioos:station:USF.COMPS:FHP:1,2019-06-06T06:54:00,28.1530,-82.8010,10.0,2.58,148.34,3.13,'11111222,11111222,11111222' 
COMPS,ioos:station:USF.COMPS:FHP:1,2019-06-06T07:54:00,28.1530,-82.8010,10.0,1.2,126.31,1.56,'11111222,11111222,11111222' 
COMPS,ioos:station:USF.COMPS:FHP:1,2019-06-06T08:54:00,28.1530,-82.8010,10.0,1.5,116.07,1.95,'11111222,11111222,11111222' 
COMPS,ioos:station:USF.COMPS:FHP:1,2019-06-06T09:54:00,28.1530,-82.8010,10.0,2.34,116.29,3.13,'11111222,11111222,11111222' 
COMPS,ioos:station:USF.COMPS:FHP:1,2019-06-06T10:54:00,28.1530,-82.8010,10.0,2.56,116.35,3.23,'11111222,11111222,11111222' 
COMPS,ioos:station:USF.COMPS:FHP:1,2019-06-06T11:54:00,28.1530,-82.8010,10.0,2.33,148.63,3.23,'11111222,11111222,11111222' 
COMPS,ioos:station:USF.COMPS:FHP:1,2019-06-06T12:54:00,28.1530,-82.8010,10.0,3.57,176.96,4.5,'11111222,11111222,11111222' 
COMPS,ioos:station:USF.COMPS:FHP:1,2019-06-06T13:54:00,28.1530,-82.8010,10.0,4.17,194.58,5.09,'11111222,11111222,11111222' 
COMPS,ioos:station:USF.COMPS:FHP:1,2019-06-06T14:54:00,28.1530,-82.8010,10.0,3.74,229.9,4.6,'11111222,11111222,11111222' 
COMPS,ioos:station:USF.COMPS:FHP:1,2019-06-06T15:54:00,28.1530,-82.8010,10.0,5.57,251.53,6.37,'11111222,11111222,11111222' 
COMPS,ioos:station:USF.COMPS:FHP:1,2019-06-06T16:54:00,28.1530,-82.8010,10.0,4.61,235.02,5.68,'11111222,11111222,11111222' 
COMPS,ioos:station:USF.COMPS:FHP:1,2019-06-06T17:54:00,28.1530,-82.8010,10.0,3.01,235.4,3.82,'11111222,11111222,11111222' 
COMPS,ioos:station:USF.COMPS:FHP:1,2019-06-06T18:54:00,28.1530,-82.8010,10.0,4.91,255.31,6.37,'11111222,11111222,11111222' 
COMPS,ioos:station:USF.COMPS:FHP:1,2019-06-06T19:54:00,28.1530,-82.8010,10.0,3.79,252.27,4.8,'11111222,11111222,11111222' 
COMPS,ioos:station:USF.COMPS:FHP:1,2019-06-06T20:54:00,28.1530,-82.8010,10.0,3.07,250.05,4.5,'11111222,11111222,11111222' 
COMPS,ioos:station:USF.COMPS:FHP:1,2019-06-06T21:54:00,28.1530,-82.8010,10.0,3.24,259.42,4.31,'11111222,11111222,11111222' 
COMPS,ioos:station:USF.COMPS:FHP:1,2019-06-06T22:54:00,28.1530,-82.8010,10.0,2.28,231.01,2.84,'11111222,11111222,11111222' 
COMPS,ioos:station:USF.COMPS:FHP:1,2019-06-06T23:54:00,28.1530,-82.8010,10.0,3.09,252.28,4.01,'11111222,11111222,11111222' 
COMPS,ioos:station:USF.COMPS:FHP:1,2019-06-07T00:54:00,28.1530,-82.8010,10.0,2.03,227.4,2.74,'11111222,11111222,11111222' 
COMPS,ioos:station:USF.COMPS:FHP:1,2019-06-07T01:54:00,28.1530,-82.8010,10.0,2.54,211.4,3.23,'11111222,11111222,11111222' 
COMPS,ioos:station:USF.COMPS:FHP:1,2019-06-07T02:54:00,28.1530,-82.8010,10.0,2.81,219.4,3.72,'11111222,11111222,11111222' 
COMPS,ioos:station:USF.COMPS:FHP:1,2019-06-07T03:54:00,28.1530,-82.8010,10.0,2.2,128.44,3.03,'11111222,11111222,11111222' 
COMPS,ioos:station:USF.COMPS:FHP:1,2019-06-07T04:54:00,28.1530,-82.8010,10.0,3.41,124.01,4.11,'11111222,11111222,11111222' 
COMPS,ioos:station:USF.COMPS:FHP:1,2019-06-07T05:54:00,28.1530,-82.8010,10.0,2.3,126.88,2.84,'11111222,11111222,11111222' 
COMPS,ioos:station:USF.COMPS:FHP:1,2019-06-07T06:54:00,28.1530,-82.8010,10.0,2.71,128.57,3.23,'11111222,11111222,11111222' 
COMPS,ioos:station:USF.COMPS:FHP:1,2019-06-07T07:54:00,28.1530,-82.8010,10.0,3.48,145.75,4.11,'11111222,11111222,11111222' 
COMPS,ioos:station:USF.COMPS:FHP:1,2019-06-07T08:54:00,28.1530,-82.8010,10.0,5.95,172.72,6.85,'11111222,11111222,11111222' 
COMPS,ioos:station:USF.COMPS:FHP:1,2019-06-07T09:54:00,28.1530,-82.8010,10.0,3.68,158.63,4.21,'11111222,11111222,11111222' 
COMPS,ioos:station:USF.COMPS:FHP:1,2019-06-07T10:54:00,28.1530,-82.8010,10.0,4.46,157.98,5.29,'11111222,11111222,11111222' 
COMPS,ioos:station:USF.COMPS:FHP:1,2019-06-07T11:54:00,28.1530,-82.8010,10.0,6.46,149.72,6.95,'11111222,11111222,11111222' 
COMPS,ioos:station:USF.COMPS:FHP:1,2019-06-07T12:54:00,28.1530,-82.8010,10.0,4.82,152.81,5.97,'11111222,11111222,11111222' 
COMPS,ioos:station:USF.COMPS:FHP:1,2019-06-07T13:54:00,28.1530,-82.8010,10.0,5.37,224.02,6.07,'11111222,11111222,11111222' 
COMPS,ioos:station:USF.COMPS:FHP:1,2019-06-07T14:54:00,28.1530,-82.8010,10.0,5.93,216.2,6.85,'11111222,11111222,11111222' 
COMPS,ioos:station:USF.COMPS:FHP:1,2019-06-07T15:54:00,28.1530,-82.8010,10.0,6.34,219.49,6.95,'11111222,11111222,11111222' 
COMPS,ioos:station:USF.COMPS:FHP:1,2019-06-07T16:54:00,28.1530,-82.8010,10.0,6.22,229.37,6.85,'11111222,11111222,11111222' 
COMPS,ioos:station:USF.COMPS:FHP:1,2019-06-07T17:54:00,28.1530,-82.8010,10.0,6.36,228.82,6.95,'11111222,11111222,11111222' 
COMPS,ioos:station:USF.COMPS:FHP:1,2019-06-07T18:54:00,28.1530,-82.8010,10.0,6.14,228.88,6.76,'11111222,11111222,11111222' 
COMPS,ioos:station:USF.COMPS:FHP:1,2019-06-07T19:54:00,28.1530,-82.8010,10.0,6.23,235.2,6.76,'11111222,11111222,11111222' 
COMPS,ioos:station:USF.COMPS:FHP:1,2019-06-07T20:54:00,28.1530,-82.8010,10.0,6.42,235.19,6.85,'11111222,11111222,11111222' 
COMPS,ioos:station:USF.COMPS:FHP:1,2019-06-07T21:54:00,28.1530,-82.8010,10.0,5.91,245.09,6.76,'11111222,11111222,11111222' 
COMPS,ioos:station:USF.COMPS:FHP:1,2019-06-07T22:54:00,28.1530,-82.8010,10.0,5.41,242.46,6.46,'11111222,11111222,11111222' 
COMPS,ioos:station:USF.COMPS:FHP:1,2019-06-07T23:54:00,28.1530,-82.8010,10.0,5.32,239.43,6.46,'11111222,11111222,11111222' 
COMPS,ioos:station:USF.COMPS:FHP:1,2019-06-08T00:54:00,28.1530,-82.8010,10.0,4.9,236.56,6.37,'11111222,11111222,11111222' 
COMPS,ioos:station:USF.COMPS:FHP:1,2019-06-08T01:54:00,28.1530,-82.8010,10.0,5.47,226.43,6.27,'11111222,11111222,11111222' 
COMPS,ioos:station:USF.COMPS:FHP:1,2019-06-08T02:54:00,28.1530,-82.8010,10.0,5.74,225.53,6.76,'11111222,11111222,11111222' 
COMPS,ioos:station:USF.COMPS:FHP:1,2019-06-08T03:54:00,28.1530,-82.8010,10.0,4.89,210.89,5.68,'11111222,11111222,11111222' 
COMPS,ioos:station:USF.COMPS:FHP:1,2019-06-08T04:54:00,28.1530,-82.8010,10.0,5.95,191.74,6.85,'11111222,11111222,11111222' 
COMPS,ioos:station:USF.COMPS:FHP:1,2019-06-08T05:54:00,28.1530,-82.8010,10.0,5.36,172.71,6.95,'11111222,11111222,11111222' 
COMPS,ioos:station:USF.COMPS:FHP:1,2019-06-08T06:54:00,28.1530,-82.8010,10.0,6.36,186.28,6.85,'11111222,11111222,11111222' 
COMPS,ioos:station:USF.COMPS:FHP:1,2019-06-08T07:54:00,28.1530,-82.8010,10.0,6.25,197.86,7.05,'11111222,11111222,11111222' 
COMPS,ioos:station:USF.COMPS:FHP:1,2019-06-08T08:54:00,28.1530,-82.8010,10.0,5.93,204.07,7.05,'11111222,11111222,11111222' 
COMPS,ioos:station:USF.COMPS:FHP:1,2019-06-08T09:54:00,28.1530,-82.8010,10.0,6.24,197.5,6.95,'11111222,11111222,11111222' 
COMPS,ioos:station:USF.COMPS:FHP:1,2019-06-08T10:54:00,28.1530,-82.8010,10.0,6.43,205.76,6.85,'11111222,11111222,11111222' 
COMPS,ioos:station:USF.COMPS:FHP:1,2019-06-08T11:54:00,28.1530,-82.8010,10.0,5.11,242.19,6.07,'11111222,11111222,11111222' 
COMPS,ioos:station:USF.COMPS:FHP:1,2019-06-08T12:54:00,28.1530,-82.8010,10.0,6.43,28.12,7.44,'11111222,11111222,11111222' 
COMPS,ioos:station:USF.COMPS:FHP:1,2019-06-08T13:54:00,28.1530,-82.8010,10.0,5.47,22.41,6.46,'11111222,11111222,11111222' 
COMPS,ioos:station:USF.COMPS:FHP:1,2019-06-08T14:54:00,28.1530,-82.8010,10.0,3.35,71.75,4.11,'11111222,11111222,11111222' 
COMPS,ioos:station:USF.COMPS:FHP:1,2019-06-08T15:54:00,28.1530,-82.8010,10.0,2.32,110.42,2.84,'11111222,11111222,11111222' 
COMPS,ioos:station:USF.COMPS:FHP:1,2019-06-08T16:54:00,28.1530,-82.8010,10.0,5.39,163.29,6.85,'11111222,11111222,11111222' 
COMPS,ioos:station:USF.COMPS:FHP:1,2019-06-08T17:54:00,28.1530,-82.8010,10.0,10.53,195.13,15.97,'11111222,11111222,11111222' 
COMPS,ioos:station:USF.COMPS:FHP:1,2019-06-08T18:54:00,28.1530,-82.8010,10.0,6.55,196.08,6.95,'11111222,11111222,11111222' 
COMPS,ioos:station:USF.COMPS:FHP:1,2019-06-08T23:54:00,28.1530,-82.8010,10.0,5.25,257.87,6.95,'11111222,11111222,11111222' 
COMPS,ioos:station:USF.COMPS:FHP:1,2019-06-09T00:54:00,28.1530,-82.8010,10.0,7.51,297.59,9.6,'11111222,11111222,11111222' 
COMPS,ioos:station:USF.COMPS:FHP:1,2019-06-09T01:54:00,28.1530,-82.8010,10.0,1.94,158.5,3.33,'11111222,11111222,11111222' 
COMPS,ioos:station:USF.COMPS:FHP:1,2019-06-09T02:54:00,28.1530,-82.8010,10.0,5.14,131.9,5.97,'11111222,11111222,11111222' 
COMPS,ioos:station:USF.COMPS:FHP:1,2019-06-09T03:54:00,28.1530,-82.8010,10.0,6.47,153.31,6.95,'11111222,11111222,11111222' 
COMPS,ioos:station:USF.COMPS:FHP:1,2019-06-09T04:54:00,28.1530,-82.8010,10.0,6.43,157.33,7.15,'11111222,11111222,11111222' 